Wind_Speed
3 4 7 10 6 3 7 6 5 3 2 5 7 16 11 17 25 28 34 35 36 34 29 27 25 22 19 16 12 8 8 9 10 9 9 11 15 18 20 23 26 27 30 31
5 5 4 7 7 6 4 4 4 1 3 4 5 16 13 18 22 36 38 41 43 38 34 33 31 27 23 17 14 10 8 9 10 10 11 13 15 17 19 22 25 29 30 29
5 0 7 4 4 6 2 4 3 2 3 2 6 9 6 7 22 26 36 42 43 44 41 38 36 32 26 22 16 13 10 8 9 9 10 12 13 15 19 22 25 28 30 30
1 1 4 3 4 3 3 3 5 4 2 3 2 7 5 5 8 10 25 39 41 42 41 41 38 35 31 25 20 16 11 9 9 8 9 11 14 17 20 24 26 27 28 28
5 5 2 2 2 5 2 3 5 3 4 2 3 2 7 4 7 11 17 32 37 41 41 43 43 37 32 27 21 17 13 9 8 8 9 10 12 16 19 21 23 26 24 25
2 1 2 2 3 2 10 6 7 5 3 3 5 3 4 5 7 4 2 14 28 34 39 40 40 38 34 29 25 20 14 11 8 8 8 9 12 15 18 22 25 26 25 24
2 1 0 4 7 6 3 5 3 4 3 6 4 3 10 9 7 6 7 4 11 22 34 41 43 43 39 34 29 22 16 13 9 8 7 8 11 14 18 23 26 27 26 24
7 4 8 4 4 7 4 3 5 7 3 4 4 7 7 6 6 11 14 14 13 20 27 37 41 44 42 36 30 24 19 15 10 8 6 7 9 12 17 21 23 25 25 24
6 2 1 2 2 3 6 4 3 7 1 3 5 9 10 9 8 12 12 9 14 20 24 32 39 43 42 37 31 26 21 17 12 9 5 5 7 11 15 19 21 23 22 22
7 5 3 1 2 4 4 4 3 3 2 4 5 6 9 6 5 3 7 23 21 19 24 29 36 41 42 37 31 27 23 18 13 10 5 3 5 9 14 17 19 20 19 20
5 5 1 2 7 8 4 2 2 3 4 5 2 6 8 10 10 6 9 14 19 22 24 28 33 39 41 38 33 29 25 20 15 10 5 3 4 8 13 15 17 18 19 19
3 5 4 6 1 0 2 7 8 5 6 3 2 7 2 8 7 9 12 10 13 18 22 26 30 36 42 40 37 32 27 22 17 11 7 4 2 6 11 13 15 16 17 18
8 3 3 5 3 1 6 7 5 4 3 6 6 6 1 4 7 13 12 10 11 16 22 26 31 36 43 42 39 34 29 24 18 12 9 6 2 5 9 11 13 15 16 18
5 1 7 9 6 6 6 8 16 7 4 5 7 7 12 7 8 9 15 14 14 16 23 27 30 35 44 44 41 36 31 26 19 14 11 7 3 3 6 9 11 14 16 18
4 5 3 3 1 4 5 6 17 19 25 10 9 16 21 20 11 20 28 20 18 20 25 29 32 36 44 47 44 39 34 29 22 17 13 9 5 1 4 7 10 12 16 17
3 1 1 4 3 4 7 8 12 19 16 15 23 21 17 15 11 16 24 21 25 29 29 31 33 36 43 49 48 43 37 31 24 19 15 12 7 2 1 5 8 12 14 16
2 4 2 6 4 5 14 13 15 7 6 12 15 22 10 16 12 26 31 29 32 34 36 37 37 39 42 48 50 47 40 33 26 21 18 15 10 5 2 4 7 10 12 14
8 5 4 3 2 13 4 2 6 19 14 21 11 7 18 18 13 18 24 21 21 32 35 37 38 39 40 45 49 45 39 34 29 24 21 18 13 8 4 3 5 8 11 12
3 11 3 4 6 13 24 4 7 9 14 21 19 29 34 20 10 34 38 31 28 24 27 31 34 36 39 43 47 48 43 37 32 27 24 20 15 10 6 4 4 6 9 11
2 2 11 4 5 13 12 15 15 8 23 14 26 24 18 11 2 16 19 13 6 9 15 17 26 34 38 41 46 50 46 41 36 29 25 22 17 12 9 6 4 5 8 10
5 1 18 15 9 11 8 11 18 6 10 16 25 28 13 7 15 11 0 7 9 6 9 14 22 30 34 37 45 52 48 43 35 30 28 25 20 15 11 7 5 4 7 9
13 11 9 6 11 21 11 7 20 9 12 8 14 23 19 28 27 26 21 17 12 10 11 14 20 28 31 36 45 52 49 42 37 33 31 28 23 18 13 10 6 4 5 8
8 10 9 15 14 5 17 14 32 21 18 14 17 16 12 16 19 22 20 16 14 14 14 14 19 25 30 36 45 51 50 44 40 36 34 30 25 20 16 11 8 5 4 5
5 4 9 7 23 18 30 27 17 17 32 28 27 25 18 20 20 12 15 21 19 18 17 17 19 26 33 38 45 50 48 45 41 38 36 32 27 23 19 14 10 6 4 2
9 10 10 11 24 11 15 22 32 29 25 24 25 27 26 28 32 29 29 31 25 20 19 20 21 26 33 39 47 50 49 46 42 39 37 33 29 24 20 16 12 8 5 2
7 8 10 14 19 8 17 31 29 25 26 31 37 36 32 34 34 30 26 26 22 21 22 23 24 27 34 41 47 52 51 46 42 41 39 36 31 27 23 18 14 11 7 5
Wind_Direction
58 98 191 195 179 147 140 155 176 233 190 155 246 269 261 229 222 233 231 228 225 223 223 220 222 223 225 231 241 264 292 318 323 329 335 345 354 357 351 349 349 349 351 346
51 220 197 147 148 120 124 131 208 191 148 159 280 271 251 222 225 220 222 228 229 225 219 217 218 220 227 233 239 255 279 306 320 329 340 347 352 353 350 348 352 351 347 344
157 210 121 120 146 133 144 156 187 176 146 174 299 277 252 251 234 229 228 236 236 228 220 216 215 219 223 229 236 246 262 291 311 320 338 344 347 346 348 351 351 351 348 344
157 68 145 127 179 131 184 157 128 135 123 239 316 282 291 237 261 229 227 226 228 229 225 222 217 217 222 225 228 238 250 275 296 313 330 343 345 350 349 350 353 352 347 343
220 157 142 158 227 164 171 127 113 95 89 25 301 308 264 40 289 258 222 229 227 231 225 221 219 221 222 222 228 234 241 260 281 302 324 338 346 346 349 349 350 352 350 345
94 99 77 101 40 43 149 77 56 55 54 359 245 199 262 182 214 273 223 232 231 226 223 224 221 218 216 217 222 228 234 249 270 289 319 332 343 347 346 348 351 355 353 351
63 179 327 138 82 359 61 87 353 357 10 224 321 243 260 265 226 230 241 234 221 224 219 216 214 211 211 213 217 222 227 239 256 277 307 328 343 349 347 349 352 354 353 354
155 278 173 174 160 178 196 173 163 200 191 257 23 243 251 228 251 243 257 255 239 215 215 217 214 213 211 212 215 219 222 231 244 263 291 327 343 347 348 350 352 355 353 354
151 200 65 68 116 113 185 203 152 101 24 63 232 287 285 266 246 228 219 226 219 216 216 215 214 213 210 211 214 217 219 224 235 250 275 323 340 344 348 349 355 356 352 356
199 90 347 9 130 73 167 157 94 353 172 250 278 281 243 301 270 178 212 225 224 217 217 217 215 211 209 211 212 212 216 222 231 240 254 304 328 345 348 350 359 356 357 0
153 116 302 140 214 177 133 221 31 142 166 185 216 253 223 234 228 214 230 230 224 219 216 216 215 212 209 209 210 212 215 218 226 234 238 258 316 345 348 351 2 0 2 5
215 108 152 196 218 149 269 191 173 146 230 257 130 268 269 256 271 246 238 232 231 229 221 219 217 212 207 208 208 211 214 214 222 226 231 231 300 343 349 355 7 5 7 9
191 224 69 359 360 39 208 208 170 123 98 199 155 256 256 275 278 254 252 239 232 222 216 217 215 211 208 207 209 210 212 214 217 216 222 221 262 343 351 359 11 9 13 16
134 137 174 201 185 130 193 201 197 155 133 203 223 275 282 269 255 254 246 243 245 228 219 219 217 212 209 209 209 209 210 211 212 211 214 212 233 335 352 4 16 16 22 21
146 220 168 264 180 178 202 189 192 204 220 203 219 229 250 253 235 251 262 250 241 233 225 224 221 214 210 208 208 208 209 209 206 208 208 203 212 296 352 14 23 23 29 27
359 245 60 298 334 239 259 211 182 217 239 259 269 266 245 271 248 248 249 236 237 243 240 236 227 220 215 210 208 207 207 206 203 205 202 199 203 214 7 31 31 31 31 30
178 143 78 266 341 319 271 191 191 189 190 210 236 242 266 261 234 241 253 248 248 254 251 239 233 227 219 212 209 206 204 202 201 202 200 196 197 200 132 56 44 38 35 33
160 167 161 248 16 247 258 338 189 207 210 218 248 261 240 248 253 258 265 256 257 264 252 243 237 228 221 215 208 205 202 201 200 199 198 196 191 190 155 103 65 47 39 34
157 199 195 215 204 287 279 191 156 170 244 221 230 246 253 261 303 289 274 272 276 277 269 260 245 231 221 215 207 201 200 199 198 198 196 193 190 186 167 140 86 58 48 40
124 29 209 152 213 238 279 207 169 108 270 208 218 239 251 137 258 265 286 265 262 265 247 241 230 225 221 213 203 199 199 198 198 197 193 190 189 182 173 153 113 69 53 42
167 174 211 225 241 272 195 134 135 150 265 203 218 232 194 190 224 254 192 192 291 255 236 228 223 223 219 210 200 198 199 199 195 192 190 189 185 183 176 164 134 88 58 44
176 175 202 210 219 254 145 134 201 235 224 245 243 240 231 251 255 257 258 267 266 247 234 221 220 215 213 205 198 197 198 195 191 191 190 189 185 183 178 168 147 114 68 45
202 197 186 189 217 216 188 216 220 237 261 256 243 242 261 263 262 267 265 261 254 241 224 218 220 214 207 200 199 197 196 192 190 190 190 187 183 183 180 172 159 140 98 62
251 188 217 175 242 243 245 237 249 249 246 253 258 267 276 275 279 261 299 272 246 236 223 225 217 210 204 197 198 199 193 191 191 190 189 187 185 185 181 177 172 163 147 94
202 150 221 246 254 279 269 252 248 250 257 262 260 261 268 277 273 263 262 253 239 233 229 227 223 214 205 198 195 195 194 193 191 190 189 187 186 188 184 179 177 175 169 159
192 195 204 233 230 238 263 255 258 266 267 261 261 265 268 272 273 267 260 248 239 236 234 226 221 213 206 200 196 192 194 195 194 190 190 189 187 188 189 187 183 182 183 193
Height
1508 1515 1520 1516 1518 1518 1525 1530 1531 1536 1534 1537 1539 1528 1524 1522 1523 1521 1520 1521 1521 1523 1528 1531 1533 1535 1537 1538 1539 1540 1540 1540 1538 1537 1535 1533 1530 1527 1524 1520 1515 1511 1505 1500
1513 1514 1510 1512 1517 1520 1524 1527 1531 1532 1533 1536 1534 1521 1513 1509 1503 1502 1505 1509 1510 1515 1519 1523 1526 1530 1533 1536 1538 1539 1539 1539 1538 1536 1534 1532 1529 1526 1522 1518 1513 1507 1504 1500
1511 1511 1511 1515 1519 1520 1523 1524 1530 1527 1535 1535 1535 1516 1502 1493 1492 1493 1495 1497 1501 1504 1510 1515 1519 1524 1529 1532 1535 1535 1535 1536 1535 1534 1532 1530 1529 1526 1523 1519 1514 1508 1502 1497
1510 1513 1513 1514 1518 1519 1520 1522 1527 1532 1531 1539 1535 1523 1498 1489 1491 1488 1487 1486 1488 1495 1504 1510 1514 1518 1522 1527 1530 1532 1533 1533 1533 1532 1530 1529 1527 1524 1520 1516 1512 1507 1501 1497
1510 1513 1514 1514 1513 1515 1521 1526 1529 1533 1539 1537 1535 1543 1498 1491 1485 1476 1475 1476 1481 1487 1495 1500 1505 1512 1517 1523 1527 1529 1530 1531 1530 1530 1529 1526 1524 1522 1519 1516 1511 1506 1503 1496
1513 1513 1513 1516 1521 1519 1525 1530 1535 1543 1546 1572 1534 1536 1492 1487 1475 1469 1467 1469 1473 1480 1486 1492 1500 1506 1512 1518 1521 1524 1528 1528 1528 1527 1526 1525 1523 1520 1518 1514 1510 1505 1500 1494
1513 1514 1515 1514 1522 1526 1524 1530 1570 1564 1583 1555 1545 1543 1488 1470 1468 1468 1465 1467 1470 1472 1476 1482 1488 1496 1503 1508 1514 1520 1523 1524 1525 1525 1524 1523 1521 1519 1515 1512 1506 1500 1497 1492
1509 1519 1515 1513 1514 1520 1529 1528 1545 1553 1563 1548 1545 1533 1477 1461 1458 1459 1461 1465 1466 1467 1472 1477 1483 1488 1495 1504 1510 1515 1518 1519 1520 1520 1520 1520 1519 1516 1514 1510 1505 1500 1496 1492
1504 1501 1513 1512 1512 1515 1525 1534 1531 1570 1595 1565 1523 1497 1472 1456 1457 1456 1459 1461 1461 1464 1467 1470 1477 1485 1492 1499 1505 1510 1513 1515 1516 1516 1517 1516 1516 1514 1513 1509 1504 1500 1497 1492
1485 1508 1516 1515 1514 1515 1518 1522 1534 1555 1555 1560 1527 1518 1480 1458 1450 1452 1457 1455 1458 1461 1465 1469 1474 1479 1487 1495 1501 1506 1509 1512 1514 1515 1515 1514 1513 1512 1511 1507 1503 1499 1496 1492
1481 1486 1520 1515 1514 1511 1521 1528 1529 1526 1532 1535 1540 1495 1465 1455 1451 1450 1450 1452 1455 1457 1459 1464 1469 1477 1484 1491 1496 1501 1505 1508 1511 1513 1513 1511 1511 1510 1509 1506 1501 1499 1496 1491
1480 1494 1518 1511 1507 1507 1510 1505 1512 1522 1522 1537 1532 1502 1452 1452 1451 1449 1446 1448 1451 1455 1458 1461 1466 1472 1479 1486 1491 1497 1501 1504 1507 1511 1511 1509 1508 1508 1507 1505 1500 1498 1494 1490
1474 1493 1524 1512 1510 1508 1507 1503 1500 1519 1523 1527 1525 1485 1450 1450 1449 1446 1447 1448 1448 1451 1454 1457 1460 1465 1473 1479 1486 1491 1497 1501 1504 1507 1508 1508 1506 1506 1506 1504 1500 1497 1495 1491
1466 1482 1476 1463 1462 1481 1495 1488 1487 1496 1525 1506 1495 1468 1450 1448 1448 1442 1442 1445 1446 1447 1449 1452 1455 1458 1465 1472 1479 1485 1491 1497 1501 1504 1505 1507 1507 1505 1504 1502 1500 1498 1494 1491
1469 1476 1486 1482 1471 1474 1469 1471 1476 1481 1466 1472 1454 1458 1447 1436 1441 1436 1438 1441 1441 1443 1444 1444 1447 1452 1457 1464 1471 1479 1484 1490 1496 1499 1501 1504 1505 1505 1503 1501 1499 1498 1493 1490
1473 1478 1482 1476 1478 1476 1473 1463 1472 1471 1470 1469 1459 1449 1434 1432 1433 1433 1430 1432 1434 1434 1436 1437 1439 1443 1447 1453 1461 1470 1477 1484 1491 1495 1497 1500 1503 1503 1501 1500 1499 1497 1494 1491
1476 1481 1485 1483 1483 1480 1457 1453 1457 1460 1462 1455 1457 1430 1429 1422 1422 1420 1420 1424 1426 1426 1427 1427 1427 1430 1436 1442 1451 1460 1470 1479 1485 1490 1494 1496 1499 1501 1500 1499 1498 1496 1495 1492
1467 1475 1476 1481 1483 1456 1417 1427 1426 1432 1434 1436 1426 1425 1412 1408 1410 1412 1412 1414 1416 1414 1414 1417 1421 1424 1430 1437 1447 1458 1466 1473 1479 1484 1488 1492 1495 1498 1499 1499 1497 1496 1495 1493
1449 1456 1470 1468 1476 1432 1407 1427 1426 1431 1416 1417 1422 1406 1399 1410 1411 1403 1400 1404 1402 1402 1405 1410 1415 1419 1422 1428 1438 1450 1459 1466 1473 1478 1483 1488 1492 1494 1496 1496 1497 1496 1495 1493
1451 1452 1447 1477 1459 1436 1381 1392 1403 1414 1393 1398 1393 1391 1395 1408 1417 1394 1393 1395 1396 1397 1400 1402 1406 1412 1416 1421 1432 1442 1450 1458 1466 1472 1479 1485 1488 1492 1493 1494 1495 1495 1495 1494
1449 1457 1440 1442 1439 1418 1391 1396 1406 1423 1383 1379 1384 1384 1392 1400 1391 1391 1392 1393 1395 1396 1397 1399 1401 1405 1410 1416 1425 1435 1444 1452 1461 1469 1474 1480 1484 1489 1491 1492 1493 1494 1494 1493
1418 1434 1431 1441 1434 1417 1383 1394 1391 1376 1374 1379 1379 1379 1383 1384 1388 1389 1391 1391 1392 1393 1394 1395 1398 1401 1406 1413 1420 1427 1437 1448 1456 1463 1469 1474 1480 1485 1488 1491 1492 1494 1494 1493
1403 1387 1394 1400 1383 1369 1372 1369 1370 1373 1375 1377 1377 1377 1378 1381 1383 1385 1387 1388 1390 1390 1390 1391 1394 1398 1404 1410 1416 1422 1433 1443 1449 1457 1465 1471 1476 1481 1485 1488 1490 1492 1492 1492
1383 1381 1382 1387 1361 1366 1365 1368 1371 1372 1374 1375 1376 1377 1377 1380 1380 1381 1382 1386 1386 1387 1387 1389 1391 1394 1399 1405 1412 1423 1430 1439 1445 1452 1461 1467 1474 1478 1481 1485 1488 1489 1491 1491
1365 1375 1372 1368 1354 1364 1363 1366 1369 1369 1370 1371 1372 1372 1373 1377 1378 1376 1378 1378 1379 1380 1383 1385 1388 1391 1396 1401 1408 1417 1427 1434 1440 1448 1456 1463 1470 1476 1479 1482 1485 1487 1489 1491
1358 1361 1365 1353 1354 1354 1357 1363 1364 1364 1362 1365 1368 1368 1368 1372 1372 1372 1372 1372 1374 1375 1377 1380 1383 1387 1392 1396 1402 1412 1423 1430 1437 1442 1450 1458 1464 1471 1476 1479 1481 1484 1487 1487